Weather in Cangzhou

China     38°19′18″N   116°51′17″E
temp.,
°C
wind,
m/s
gust,
m/s
humid.,
%
clouds,
%
prec.,
mm/h
press.,
hPa
HPBL,
m
22 october, fri
fri2223:00+10w34420 0.0 102664
02:00+9nw47510 0.0 1027104
05:00+7nne48520 0.0 1028141
08:00+10ne24550 0.0 1030114
11:00+15nne68280 0.0 10301207
14:00+16nne45250 0.0 10291498
17:00+14ne22375 0.0 102917
20:00+10se33495 0.0 103042
23 october, sat
sat2323:00+9s335445 0.0 103126
02:00+8s2255100 0.0 103010
05:00+8sse2254100 0.0 103012
08:00+9sse1252100 0.0 103169
11:00+14sse22365 0.0 1031626
14:00+16s22302 0.0 10291239
17:00+14sse123982 0.0 102810
20:00+12s2244100 0.0 102911
24 october, sun
sun2423:00+11s224921 0.0 102910
02:00+10ssw225286 0.0 102814
05:00+9ssw22565 0.0 102710
08:00+10ssw23565 0.0 102883
11:00+16sw34420 0.0 1027710
14:00+18sw34400 0.0 10241297
17:00+16sw33530 0.0 102434
20:00+13ssw34590 0.0 102543
25 october, mon
mon2523:00+12sw35650 0.0 102567
02:00+11ssw3669100 0.0 1023111
05:00+10ssw35725 0.0 102387
08:00+12ssw496949 0.0 1023217
11:00+17sw684825 0.0 1022646
14:00+20sw6744100 0.0 1019996
17:00+17ssw345889 0.0 101967
20:00+14ssw496734 0.0 1019168
26 october, tue
tue2623:00+13ssw31070100 0.0 1019198
02:00+13ssw4970100 0.0 1019195
05:00+12ssw3873100 0.0 1018165
08:00+12wsw3772100 0.0 1020208
11:00+17nw3458100 0.0 1020454
14:00+21n6921100 0.0 10191871
17:00+17n35340 0.0 102168
20:00+13nne37400 0.0 102395